Regional Weather Roundup
Issued by NWS

Home | Current Version | Previous Version | Text Only | Print | Product List | Glossary Off
Versions: 1 2 3 4 5 6 7 8 9 10 11 12 13 14 15 16 17 18 19 20 21 22 23 24 25 26 27 28 29 30 31 32 33 34 35 36 37 38 39 40 41 42 43 44 45 46 47 48 49 50

000
ASUS44 KMEG 231600
RWRTN
TENNESSEE HOURLY STATE WEATHER ROUNDUP
NATIONAL WEATHER SERVICE MEMPHIS TN
1100 AM CDT SAT SEP 23 2017

TNZ002-004-019-021-049-052-054-088>092-231700-
WEST TENNESSEE

CITY           SKY/WX    TMP DP  RH WIND       PRES   REMARKS
MEMPHIS INTL   SUNNY     88  69  53 NE6       30.04S HX  92
NWS MEMPHIS      N/A     87 N/A N/A MISG        N/A
JACKSON        SUNNY     85  70  60 E3        30.06S
DYERSBURG      SUNNY     86  72  62 NE3       30.06S HX  92
$$

TNZ008-025-027-028-033-062-065-066-231700-
NORTH MIDDLE TENNESSEE

CITY           SKY/WX    TMP DP  RH WIND       PRES   REMARKS
NASHVILLE      MOSUNNY   87  69  54 VRB3      30.09S HX  91
CLARKSVILLE    SUNNY     82  69  64 VRB5      30.09R
SMYRNA         SUNNY     82  70  65 CALM      30.10S
CROSSVILLE     SUNNY     79  64  60 W6        30.16S
$$

TNZ061-075-076-078-094-096-097-231700-
SOUTH MIDDLE TENNESSEE

CITY           SKY/WX    TMP DP  RH WIND       PRES   REMARKS
TULLAHOMA      SUNNY     82  66  57 CALM      30.11S
WINCHESTER     SUNNY     82  68  61 CALM      30.10R
MCMINNVILLE    SUNNY     84  72  65 CALM      30.11S
$$

TNZ017-018-042-046-047-231700-
NORTHEAST TENNESSEE

CITY           SKY/WX    TMP DP  RH WIND       PRES   REMARKS
TRI CITIES     MOSUNNY   81  67  62 CALM      30.14S
$$

TNZ012-013-036-069-073-074-231700-
CENTRAL EAST TENNESSEE

CITY           SKY/WX    TMP DP  RH WIND       PRES   REMARKS
KNOXVILLE      PTSUNNY   79  65  62 CALM      30.11S
OAK RIDGE      MOSUNNY   81  64  56 VRB3      30.12F
GATLINBURG     SUNNY     82  64  54 SW3       30.11S
$$

TNZ083-085-099-231700-
SOUTHEAST TENNESSEE

CITY           SKY/WX    TMP DP  RH WIND       PRES   REMARKS
CHATTANOOGA    PTSUNNY   82  67  60 NW5       30.10S
$$

SKY/WX REPORTED AS FAIR MEANS FEW OR NO CLOUDS BELOW
12 THOUSAND FEET.




USA.gov is the U.S. government's official web portal to all federal, state and local government web resources and services.